Regional Weather Roundup
Issued by NWS

Home | Current Version | Previous Version | Graphics & Text | Print | Product List | Glossary On
Versions: 1 2 3 4 5 6 7 8 9 10 11 12 13 14 15 16 17 18 19 20 21 22 23 24 25 26 27 28 29 30 31 32 33 34 35 36 37 38 39 40 41 42 43 44 45 46 47 48 49 50
000
ASUS43 KLSX 041510
RWRMO

WEATHER SUMMARY FOR MISSOURI
NATIONAL WEATHER SERVICE SPRINGFIELD MO
1000 AM CDT TUE AUG 04 2015

NOTE: "FAIR" INDICATES FEW OR NO CLOUDS BELOW 12,000 FEET WITH NO
       SIGNIFICANT WEATHER AND/OR OBSTRUCTIONS TO VISIBILITY.
       CURRENT SKY AND/OR WEATHER CONDITIONS ARE NOT AVAILABLE FOR
       CHILLICOTHE AND FARMINGTON.

MOZ001>031-035>038-043-044-053-054-041600-
...NORTHERN AND WESTERN MISSOURI...

CITY           SKY/WX    TMP DP  RH WIND       PRES   REMARKS
KANSAS CTY INT PTSUNNY   80  71  74 VRB5      29.99R
KANSAS C DTWN  PTSUNNY   82  71  69 CALM      29.97R
LEE`S SUMMIT   PTSUNNY   80  71  74 CALM      29.99S
ST JOSEPH      PTSUNNY   75  69  81 N13       30.02R
CHILLICOTHE      N/A     74  67  78 E5        30.01R
KIRKSVILLE     CLOUDY    70  62  76 SE8       30.04R

$$
MOZ066>068-077>081-088>096-101>105-041600-
...SOUTHWEST MISSOURI...

CITY           SKY/WX    TMP DP  RH WIND       PRES   REMARKS
SPRINGFIELD    CLOUDY    82  67  60 S10       30.01S
JOPLIN         CLOUDY    83  67  58 S8        30.00S

$$
MOZ032>034-039>042-045>050-055>058-069>072-041600-
...CENTRAL MISSOURI...

CITY           SKY/WX    TMP DP  RH WIND       PRES   REMARKS
COLUMBIA       MOSUNNY   78  69  73 E8        30.00S
JEFFERSON CITY PTSUNNY   77  69  76 E7        29.98S
ROLLA            N/A     81  72  74 MISG      30.00R
SEDALIA        MOSUNNY   79  70  74 S7        30.00S
WHITEMAN AFB   PTSUNNY   80  71  75 S6        29.98S
WARRENSBURG    PTSUNNY   79  70  73 S3        29.98S
OSAGE BEACH    CLOUDY    79  70  73 CALM      30.00F

$$
MOZ051-052-059>065-041600-
...EAST CENTRAL MISSOURI...

CITY           SKY/WX    TMP DP  RH WIND       PRES   REMARKS
ST LOUIS INTL  PTSUNNY   81  66  60 CALM      30.00F
SPIRIT OF STL  PTSUNNY   79  69  71 SE3       29.97F
ST CHARLES     PTSUNNY   79  68  69 VRB6      29.99F

$$
MOZ072>076-082>087-097>100-106>115-041600-
...SOUTH CENTRAL AND SOUTHEAST MISSOURI...

CITY           SKY/WX    TMP DP  RH WIND       PRES   REMARKS
CAPE GIRARDEAU MOSUNNY   86  78  77 CALM      29.98S HX  98
FARMINGTON     PTSUNNY   82  72  69 S5        30.05R
POPLAR BLUFF   MOSUNNY   87  74  64 CALM      29.97F HX  95
WEST PLAINS    PTSUNNY   85  70  60 SW6       30.04S

$$


USA.gov is the U.S. government's official web portal to all federal, state and local government web resources and services.